Wind_Speed
21 24 26 29 31 33 35 37 38 39 40 42 44 46 49 51 54 57 59 61 63 65 66 68 69 68 67 65 62 61 59 59 59 59 60 61 62 63 64 65 64 63 60 55
21 23 25 28 31 34 36 38 40 41 41 43 45 47 49 52 54 57 59 61 63 64 66 67 68 67 65 63 61 60 59 58 58 58 59 60 61 62 63 64 64 63 61 56
19 23 25 28 32 34 37 40 42 43 44 45 46 47 50 52 55 57 59 61 62 64 65 66 66 66 64 62 60 59 58 57 57 57 58 59 60 62 62 63 63 62 60 57
19 23 27 30 33 36 38 41 43 44 45 46 47 49 51 53 55 57 59 61 62 63 64 65 65 65 63 61 60 58 57 56 56 56 57 58 59 60 61 62 62 62 60 58
21 23 26 30 34 37 39 41 44 46 47 48 49 50 51 54 56 57 59 60 61 62 63 64 64 64 62 61 59 58 57 56 55 55 56 57 58 59 60 61 61 61 60 59
22 25 29 32 35 39 42 44 47 49 50 51 51 51 53 55 56 57 58 60 61 62 63 63 64 63 62 60 59 57 56 55 55 55 55 56 56 57 59 60 60 61 60 59
22 25 28 31 35 39 42 45 48 50 51 53 53 53 53 55 56 57 58 60 61 61 62 62 63 62 61 60 58 57 56 55 54 54 55 55 55 56 57 58 59 60 60 59
24 27 29 32 36 39 41 44 47 50 52 54 54 54 55 56 57 57 58 59 60 61 61 61 62 62 61 59 58 56 56 55 54 54 54 54 54 54 55 55 56 57 57 57
24 27 30 32 35 38 41 44 47 50 52 55 56 56 56 56 57 58 58 59 60 60 60 61 61 61 60 59 57 56 55 54 54 53 54 53 53 53 52 53 54 54 55 55
25 27 30 33 35 38 41 44 47 50 52 55 57 58 57 57 57 58 58 59 59 60 60 60 60 60 60 58 57 55 54 54 53 52 52 53 52 51 51 51 51 52 53 53
27 28 30 32 35 38 41 43 47 50 52 54 57 59 59 58 58 58 58 59 59 59 59 59 59 59 59 58 56 54 53 53 52 52 51 52 52 51 50 51 51 52 52 52
30 31 32 34 36 38 41 43 46 49 52 54 56 59 60 59 58 58 58 58 58 59 58 58 58 58 58 57 56 54 52 51 51 51 50 51 50 51 51 50 50 51 51 51
34 34 34 36 38 39 41 43 46 49 51 54 56 58 60 60 59 58 58 58 58 58 58 58 58 57 57 57 55 53 52 50 50 50 50 50 49 49 48 49 50 49 49 49
36 36 36 37 39 40 42 44 46 49 51 53 55 57 59 61 60 59 58 58 57 57 57 57 57 56 56 56 55 53 52 50 49 49 49 49 49 49 48 47 47 47 47 47
38 39 39 40 41 41 42 44 46 48 51 53 55 57 59 61 61 59 58 57 57 56 56 56 56 55 55 55 54 53 51 50 48 48 48 48 49 49 48 48 47 47 46 45
40 41 41 42 42 43 43 45 47 48 50 52 54 56 57 59 61 60 58 57 56 55 55 55 55 54 54 54 54 53 51 49 48 47 47 47 48 48 47 47 47 46 45 45
43 42 43 43 43 44 44 45 47 48 50 51 53 55 56 58 60 61 59 57 56 55 54 54 54 53 53 53 53 52 51 49 47 46 46 46 47 47 47 46 46 46 46 45
44 45 45 45 45 45 46 46 47 48 49 50 52 54 56 57 59 61 59 57 55 54 53 53 53 52 52 52 52 52 51 49 47 46 45 45 45 46 46 46 45 45 45 44
46 47 47 47 47 47 47 47 47 48 49 50 51 53 55 56 58 60 60 57 55 53 53 52 52 51 51 51 51 51 50 49 47 46 45 44 44 45 45 45 45 44 44 43
47 48 49 48 48 48 47 47 48 48 49 49 50 52 54 55 57 59 59 57 55 53 52 51 51 51 50 50 50 50 50 49 47 45 44 44 43 44 44 45 44 43 43 43
50 51 50 50 50 49 49 49 48 48 48 48 50 52 53 54 55 58 59 57 54 53 51 50 50 50 49 49 49 49 49 48 47 45 43 43 43 43 43 44 43 42 42 42
53 52 52 52 51 51 50 50 49 48 47 47 49 51 52 53 54 57 58 56 54 52 50 49 49 49 48 48 48 48 48 48 46 44 43 41 42 42 43 43 43 42 41 41
55 53 52 51 51 52 51 50 48 47 47 47 48 50 51 52 53 55 57 56 53 51 49 48 48 48 47 47 47 47 47 47 46 44 42 41 40 41 41 42 42 41 40 40
57 54 51 51 51 52 50 49 48 47 47 47 48 49 50 51 52 54 56 55 52 50 48 47 47 47 46 46 46 46 46 46 46 44 42 40 40 40 40 41 41 40 40 40
57 55 53 52 51 51 50 50 49 47 47 47 47 48 49 50 51 53 55 54 51 49 47 46 46 46 45 45 45 45 45 46 45 43 41 40 39 39 39 39 40 39 39 39
56 55 54 52 52 52 51 50 49 48 47 47 47 48 49 50 50 52 54 53 50 47 46 45 45 45 44 44 44 44 44 45 44 43 41 39 38 38 38 38 38 38 38 38
56 55 55 54 52 52 51 51 50 48 47 47 47 48 48 49 50 51 52 51 48 46 45 44 44 44 43 43 43 43 43 44 44 42 40 38 37 37 36 36 36 37 37 37
Wind_Direction
13 12 10 8 4 0 356 353 350 348 346 344 345 345 345 345 344 345 345 345 346 346 346 346 346 347 347 348 349 350 351 352 354 355 357 358 359 359 360 0 1 2 3 4
9 9 8 7 5 2 358 356 353 351 349 347 346 346 346 346 345 346 346 347 347 347 347 348 348 348 349 350 351 352 353 354 356 357 358 359 1 1 2 3 4 5 7 7
3 4 3 6 6 5 1 358 355 353 351 349 348 347 347 347 347 347 348 348 348 348 349 349 349 350 351 351 352 353 354 356 357 358 359 0 2 3 4 5 6 7 9 10
355 357 2 1 2 4 3 359 357 354 352 351 349 348 348 348 348 348 348 349 349 349 350 350 351 351 352 353 354 355 356 357 358 359 0 2 3 5 6 7 8 9 11 12
346 351 354 357 359 1 1 360 358 356 354 352 350 349 349 349 349 348 349 349 350 351 351 351 352 352 353 354 355 356 357 358 359 0 1 3 4 5 7 8 10 11 12 14
340 344 350 353 355 357 356 359 358 356 355 353 351 349 349 349 349 348 349 350 351 352 352 352 353 353 354 355 356 357 358 359 360 1 2 4 5 6 7 9 10 12 13 15
332 339 343 348 350 352 355 355 355 355 354 353 352 350 349 349 349 349 350 351 351 352 353 353 353 354 355 356 357 358 358 359 0 2 3 5 6 7 8 9 11 12 13 15
325 332 339 343 346 349 350 351 353 353 353 353 352 350 350 350 349 349 350 351 352 353 353 353 354 355 356 356 357 358 359 360 1 2 4 5 7 8 9 10 11 12 13 15
319 326 331 336 340 343 345 348 349 351 352 352 352 351 350 349 349 350 350 351 352 353 353 354 354 355 356 357 358 359 359 0 1 2 3 5 7 8 9 10 11 12 13 15
310 317 324 329 334 338 341 344 346 348 349 350 351 351 350 349 349 350 350 351 352 353 354 354 355 355 356 357 357 359 360 0 1 2 3 4 5 7 8 10 11 12 13 14
301 309 315 322 327 332 336 339 342 345 347 348 349 350 350 349 349 349 350 351 352 353 354 354 355 355 356 357 357 358 360 0 1 2 3 3 4 6 7 8 9 11 12 13
297 303 310 316 322 327 332 336 338 341 344 345 346 348 349 349 348 349 349 350 352 353 353 354 355 355 356 357 357 358 359 0 1 2 2 3 4 4 5 7 9 9 10 11
292 297 304 311 316 321 327 331 334 337 340 343 344 345 347 348 348 348 348 350 351 352 353 354 354 355 356 356 357 358 358 359 1 2 2 3 4 5 5 6 7 8 9 10
286 292 299 306 311 316 321 326 330 334 337 340 342 343 345 347 347 347 347 349 350 351 353 353 354 355 355 356 356 357 358 359 360 1 2 2 3 4 5 6 7 7 8 9
282 289 295 301 306 311 316 321 326 330 333 336 339 341 343 345 347 346 346 347 349 350 352 353 354 354 354 355 356 356 357 358 358 359 1 1 2 3 4 5 6 7 7 8
278 284 290 295 301 306 311 317 321 326 329 333 336 338 340 342 345 346 345 346 347 349 350 352 353 353 354 354 355 356 356 357 357 358 359 0 1 2 2 3 4 5 6 7
275 280 285 290 296 301 306 312 316 321 325 329 333 335 337 340 343 345 345 345 346 348 349 350 352 352 353 353 354 355 355 356 356 357 358 359 360 1 1 2 3 3 4 5
272 277 281 286 292 297 302 307 312 317 321 325 329 332 335 337 340 343 344 344 345 346 348 349 351 351 352 352 353 354 355 355 355 356 357 358 358 359 0 1 1 2 3 3
270 274 278 282 287 292 297 302 307 312 317 321 325 329 332 334 337 340 342 342 343 344 346 348 349 350 351 351 352 353 354 354 355 355 356 357 357 358 359 360 0 1 1 2
267 271 275 279 283 288 293 298 303 309 313 318 322 325 329 332 334 338 340 341 342 343 345 347 348 349 350 350 351 352 353 353 354 354 355 356 357 357 358 359 359 360 0 1
263 266 270 274 279 284 288 294 299 304 309 314 318 322 325 329 332 335 338 339 340 342 343 345 347 348 349 349 350 351 352 352 353 353 353 355 356 357 357 358 358 359 360 1
262 263 266 270 275 279 284 289 295 300 305 310 314 319 322 326 329 332 335 337 338 340 342 344 345 347 348 348 349 350 350 351 352 352 352 353 355 356 357 357 358 359 359 0
261 263 264 267 271 275 280 286 291 296 301 306 311 315 319 323 326 330 333 335 336 337 340 342 344 345 346 347 347 348 349 350 351 351 352 352 353 354 356 357 358 358 359 360
261 262 264 265 268 271 276 282 286 292 297 302 307 312 316 319 323 327 330 332 334 335 338 340 342 343 345 346 346 347 348 349 350 350 351 351 352 353 355 356 357 358 358 359
259 260 262 263 266 269 273 278 283 288 293 299 303 308 312 316 321 324 327 330 332 333 335 338 341 342 343 344 345 346 346 348 349 349 350 350 351 352 354 355 357 357 358 358
258 258 259 261 263 266 270 275 280 285 290 295 300 305 309 313 318 321 324 327 329 331 333 336 339 341 342 343 344 344 345 346 347 348 349 349 350 351 353 354 356 357 358 358
256 255 256 258 261 264 268 272 276 281 286 291 296 301 305 310 314 318 321 324 326 328 331 334 337 339 340 341 342 343 344 345 346 347 348 348 349 350 351 353 355 356 357 358
Height
5857 5853 5848 5843 5838 5831 5824 5818 5811 5804 5796 5787 5777 5768 5757 5747 5735 5723 5710 5696 5682 5667 5652 5636 5620 5604 5587 5572 5557 5543 5529 5516 5501 5487 5473 5458 5443 5428 5412 5395 5378 5362 5345 5330
5857 5852 5847 5842 5836 5829 5822 5815 5808 5800 5792 5783 5773 5763 5753 5742 5731 5718 5705 5692 5678 5663 5647 5632 5616 5600 5584 5569 5555 5541 5528 5514 5500 5486 5472 5458 5443 5428 5413 5397 5380 5364 5348 5333
5856 5851 5847 5840 5834 5827 5820 5812 5805 5796 5789 5779 5770 5759 5749 5738 5726 5714 5701 5687 5673 5659 5644 5629 5613 5597 5582 5567 5553 5539 5526 5512 5499 5485 5472 5458 5444 5429 5414 5399 5384 5367 5352 5337
5854 5850 5843 5840 5831 5825 5818 5809 5801 5793 5784 5775 5765 5755 5745 5734 5722 5709 5697 5683 5669 5655 5640 5625 5610 5595 5580 5565 5552 5538 5524 5511 5498 5485 5472 5458 5444 5431 5417 5402 5387 5372 5357 5342
5850 5846 5841 5836 5828 5820 5814 5808 5799 5790 5781 5771 5761 5751 5741 5730 5718 5705 5693 5679 5665 5651 5636 5622 5607 5592 5577 5563 5550 5537 5524 5511 5498 5486 5473 5459 5446 5433 5419 5405 5391 5377 5362 5348
5846 5841 5836 5833 5825 5817 5811 5803 5795 5786 5777 5767 5757 5748 5738 5726 5714 5701 5689 5675 5661 5647 5633 5619 5604 5590 5576 5562 5549 5536 5523 5511 5498 5486 5473 5460 5448 5435 5421 5408 5395 5381 5367 5354
5843 5838 5834 5829 5821 5814 5807 5801 5792 5783 5773 5764 5754 5744 5734 5722 5710 5697 5685 5672 5658 5644 5630 5616 5602 5588 5574 5561 5548 5535 5523 5511 5499 5486 5474 5461 5449 5436 5424 5411 5398 5385 5373 5360
5839 5835 5831 5824 5817 5811 5805 5797 5788 5780 5770 5761 5751 5740 5729 5718 5706 5694 5682 5669 5655 5642 5628 5614 5600 5586 5573 5560 5547 5534 5522 5510 5499 5487 5475 5463 5451 5439 5427 5415 5403 5392 5380 5368
5836 5833 5826 5820 5814 5808 5801 5794 5785 5777 5768 5758 5747 5736 5726 5714 5703 5691 5678 5666 5653 5639 5626 5612 5599 5585 5572 5559 5546 5534 5522 5510 5499 5487 5476 5465 5454 5443 5432 5420 5409 5398 5387 5375
5831 5828 5822 5816 5810 5804 5797 5790 5782 5773 5764 5754 5744 5733 5722 5711 5700 5688 5675 5663 5650 5637 5624 5611 5597 5584 5571 5558 5545 5534 5522 5511 5499 5488 5477 5467 5456 5446 5435 5425 5414 5403 5392 5380
5825 5822 5818 5813 5806 5800 5793 5786 5778 5770 5761 5751 5741 5730 5719 5708 5696 5685 5673 5660 5648 5635 5622 5609 5596 5583 5570 5557 5545 5534 5522 5511 5500 5490 5479 5468 5458 5447 5438 5427 5416 5406 5395 5385
5819 5815 5811 5807 5801 5795 5788 5781 5774 5765 5757 5747 5737 5727 5716 5705 5693 5682 5670 5658 5645 5633 5620 5607 5594 5582 5569 5557 5545 5534 5523 5512 5502 5492 5481 5471 5460 5448 5437 5428 5419 5408 5398 5388
5811 5808 5804 5800 5795 5789 5783 5776 5769 5761 5752 5743 5734 5723 5713 5702 5690 5679 5667 5655 5643 5631 5618 5605 5593 5581 5568 5556 5545 5534 5523 5513 5503 5493 5483 5473 5463 5453 5442 5431 5421 5411 5402 5392
5803 5800 5797 5793 5788 5783 5777 5770 5763 5756 5748 5739 5730 5720 5709 5698 5687 5676 5664 5653 5641 5628 5616 5604 5592 5580 5568 5556 5544 5534 5523 5513 5503 5493 5483 5474 5464 5454 5444 5435 5426 5416 5406 5396
5795 5792 5789 5786 5781 5776 5770 5764 5758 5750 5743 5734 5725 5716 5706 5695 5684 5673 5661 5650 5638 5626 5614 5602 5590 5579 5567 5555 5544 5533 5523 5513 5503 5494 5484 5475 5465 5455 5446 5436 5427 5418 5409 5400
5786 5784 5781 5777 5773 5768 5763 5757 5751 5745 5737 5729 5721 5711 5702 5691 5681 5669 5658 5646 5635 5624 5612 5600 5589 5577 5566 5555 5544 5533 5523 5513 5503 5494 5485 5475 5466 5457 5447 5438 5429 5420 5411 5403
5776 5774 5771 5768 5764 5760 5755 5750 5744 5738 5731 5724 5716 5707 5697 5687 5677 5666 5654 5643 5632 5621 5610 5598 5587 5576 5565 5554 5543 5532 5522 5512 5503 5494 5485 5476 5467 5458 5448 5439 5430 5421 5412 5404
5765 5763 5761 5758 5755 5751 5747 5742 5737 5731 5725 5717 5710 5701 5692 5683 5673 5662 5651 5640 5629 5618 5607 5596 5585 5574 5563 5553 5542 5532 5522 5512 5503 5494 5485 5476 5467 5458 5449 5440 5431 5422 5414 5405
5753 5752 5750 5747 5744 5741 5737 5733 5728 5723 5717 5710 5703 5695 5687 5678 5668 5658 5647 5636 5626 5615 5605 5594 5583 5572 5562 5551 5541 5531 5521 5511 5502 5493 5484 5475 5467 5458 5449 5441 5432 5423 5415 5407
5740 5739 5737 5735 5733 5730 5727 5723 5719 5714 5709 5703 5696 5689 5681 5672 5663 5653 5643 5632 5622 5612 5602 5591 5581 5570 5560 5550 5540 5530 5520 5511 5501 5492 5484 5475 5467 5458 5450 5441 5433 5424 5416 5408
5725 5724 5723 5722 5721 5718 5716 5712 5709 5705 5700 5695 5689 5682 5674 5666 5657 5648 5638 5628 5618 5608 5598 5588 5578 5568 5558 5548 5538 5529 5519 5510 5501 5492 5483 5475 5466 5458 5450 5441 5433 5425 5417 5409
5708 5708 5709 5709 5708 5706 5704 5701 5698 5695 5691 5686 5680 5674 5667 5659 5651 5642 5633 5624 5614 5604 5594 5585 5575 5566 5556 5546 5537 5527 5518 5509 5500 5491 5482 5474 5466 5458 5450 5442 5433 5425 5417 5409
5690 5692 5694 5694 5694 5693 5691 5689 5687 5684 5681 5676 5671 5666 5659 5652 5644 5636 5628 5618 5609 5600 5590 5581 5572 5563 5553 5544 5535 5525 5516 5507 5498 5490 5482 5474 5466 5458 5450 5442 5434 5426 5418 5410
5672 5676 5678 5679 5679 5679 5678 5677 5675 5673 5670 5666 5662 5657 5651 5644 5637 5629 5621 5613 5604 5595 5586 5577 5568 5559 5550 5541 5532 5523 5514 5506 5497 5488 5480 5472 5465 5457 5449 5442 5434 5426 5418 5411
5655 5659 5662 5663 5664 5665 5664 5663 5662 5661 5658 5655 5652 5647 5642 5636 5629 5622 5614 5606 5598 5589 5581 5573 5564 5556 5547 5538 5530 5521 5512 5504 5495 5487 5479 5471 5464 5456 5449 5441 5434 5426 5419 5411
5637 5641 5645 5647 5649 5650 5650 5650 5649 5648 5646 5644 5641 5637 5632 5627 5621 5614 5607 5599 5592 5584 5576 5568 5560 5552 5543 5535 5527 5518 5510 5501 5493 5485 5477 5469 5462 5455 5448 5441 5434 5426 5419 5412
5619 5623 5627 5631 5634 5635 5636 5636 5636 5636 5634 5633 5630 5627 5622 5617 5612 5606 5599 5592 5585 5577 5570 5563 5555 5547 5539 5531 5523 5515 5507 5499 5491 5483 5475 5468 5461 5454 5447 5440 5433 5426 5419 5412